Date,TemperatureHighF,TemperatureAvgF,TemperatureLowF,DewpointHighF,DewpointAvgF,DewpointLowF,HumidityHigh,HumidityAvg,HumidityLow,PressureMaxIn,PressureMinIn,WindSpeedMaxMPH,WindSpeedAvgMPH,GustSpeedMaxMPH,PrecipitationSumIn
2013-9-1,92.8,80.5,71.7,77.0,73.7,71.0,99,82,51,29.99,29.89,6,1,10,0.00
2013-9-2,92.4,80.8,71.6,78.0,74.1,71.0,98,82,55,30.00,29.92,6,1,12,0.00
2013-9-3,90.8,80.7,73.3,80.0,75.9,72.0,99,86,59,30.02,29.91,7,1,9,0.01
2013-9-4,93.5,80.2,72.5,79.0,74.7,71.0,99,85,55,30.08,29.96,8,1,17,1.06
2013-9-5,93.2,80.9,73.1,80.0,74.6,71.0,98,83,52,30.08,29.98,5,1,16,0.38
2013-9-6,94.7,78.9,72.0,80.0,74.2,72.0,99,88,48,30.05,29.92,11,1,23,1.37
2013-9-7,90.2,78.1,70.1,77.0,72.9,70.0,99,85,58,30.02,29.90,9,2,13,0.01
2013-9-8,91.1,80.4,71.5,76.0,72.7,69.0,99,80,50,29.97,29.85,6,2,11,0.00
2013-9-9,92.0,81.8,73.3,76.0,72.8,67.0,96,76,47,30.02,29.92,8,2,10,0.00
2013-9-10,90.1,81.7,73.5,76.0,72.5,66.0,97,76,45,30.07,29.98,9,3,15,0.00
2013-9-11,91.4,79.8,71.9,76.0,73.2,69.0,99,82,49,30.06,29.97,9,2,32,0.47
2013-9-12,90.6,78.9,73.1,78.0,74.7,73.0,99,88,58,30.01,29.88,5,1,12,0.12
2013-9-13,91.3,79.1,71.2,77.0,73.7,71.0,100,85,56,29.91,29.80,5,1,10,0.01
2013-9-14,93.2,80.9,72.2,78.0,74.3,72.0,99,82,53,29.97,29.83,4,1,7,0.04
2013-9-15,92.1,78.6,71.8,79.0,74.4,70.0,98,88,59,30.07,29.96,15,2,22,0.14
2013-9-16,90.8,78.2,72.0,77.0,73.9,72.0,99,88,60,30.06,29.97,11,2,16,0.05
2013-9-17,89.8,78.5,72.4,77.0,73.9,72.0,98,87,60,30.04,29.93,11,3,16,0.21
2013-9-18,87.9,79.0,73.6,77.0,74.4,72.0,98,87,68,30.02,29.94,13,3,17,0.11
2013-9-19,88.2,78.5,73.1,77.0,74.2,72.0,99,87,67,30.04,29.95,12,2,23,1.60
2013-9-20,88.9,78.7,70.7,74.0,71.4,68.0,99,80,51,30.02,29.89,7,2,9,0.00
2013-9-21,90.4,78.8,69.6,74.0,70.9,66.0,99,79,46,29.94,29.76,5,1,8,0.00
2013-9-22,88.9,79.3,73.8,79.0,75.3,72.0,97,88,67,29.85,29.75,9,2,21,0.40
2013-9-23,83.1,76.7,73.9,79.0,75.6,73.0,99,96,86,29.95,29.82,7,1,16,1.81
2013-9-24,80.0,75.8,74.2,77.0,74.7,74.0,99,96,87,29.94,29.84,6,2,10,0.44
2013-9-25,80.3,74.7,71.1,76.0,73.2,70.0,99,95,82,29.89,29.78,11,2,13,0.52
2013-9-26,88.0,79.5,73.7,81.0,74.8,70.0,100,87,55,29.86,29.78,5,1,11,0.12
2013-9-27,84.2,75.7,69.5,75.0,71.2,69.0,98,86,69,29.95,29.85,10,3,18,0.00
2013-9-28,86.2,76.3,70.5,75.0,72.3,70.0,98,88,63,29.99,29.91,10,3,13,0.08
2013-9-29,87.5,78.0,69.1,73.0,69.9,67.0,97,78,53,29.98,29.88,6,2,12,0.00
2013-9-30,89.7,78.1,68.9,75.0,70.8,68.0,99,80,51,30.00,29.90,5,1,11,0.00